Decatur Airport Decatur US
ICAO: KDEC
IATA: DEC
Category: Medium
Scheduled Services: Yes

Elevation: 682 ft
TransAlt. 18000 ft.

Airport Communications:
CHAMPAIGN APP/DEP:132.85
ATIS:126.35
CTAF:118.9
GND:121.75
ST LOUIS RDO:122.3
TWR:118.9
UNICOM:122.95

KDEC Zoom In..

Runways:

(A) RW 06 length 8496 ft width 150 ft
ILS 110.90 / hdg 60

(B) RW 12 length 6799 ft width 150 ft
---- / hdg 120

(C) RW 18 length 5298 ft width 150 ft
---- / hdg 180

(D) RW 24 length 8496 ft width 150 ft
---- / hdg 240

(E) RW 30 length 6799 ft width 150 ft
---- / hdg 300

(F) RW 36 length 5298 ft width 150 ft
---- / hdg 360

Location; KDEC
Day. 20 / Time. 02.54 Zulu
* Altimeter: 29.86
* Temperature: 24° c. 75.2°f.
* Wind from: 170° Speed 08 kn.
Dewpoint: 21° c.
Visibility: 10 Statute Miles.
Clouds: Clear (automated report).

KDEC 200254Z 17008KT 10SM CLR 24/21 A2986 RMK AO2 SLP103 T02440206 53004


Wind From 170°
Speed 08 kn.

 
 
jpsmedia.com for Web Design worldairports.se 2018   terms of use